COSMOS 2251 DEB, 34874

Orbit data source: Space-Track

COSMOS 2251 DEB, 34874 is space debris in LEO originally from a launch on Wed, 16 Jun 1993 UTC launched from the Plesetsk Missile And Space Complex (PKMTR). The debris from Iridium 33, an American commercial communications satellite, has been tracked extensively since its accidental collision with the defunct Russian satellite Cosmos 2251 in 2009. This event, occurring at high speed in low Earth orbit (LEO), generated thousands of pieces of space debris, significantly increasing the risk of further collisions. The Iridium 33 debris cloud has impacted space traffic management and orbital debris mitigation strategies, making it a subject of ongoing study in space situational awareness.

Loading next visibility...
Identifier
34874, 1993-036ACM
Orbit
LEO
Country
Flag of CISCIS
Related business
Manufacturer
Unknown
Mission
Spacecraft
Bus & Motor
Unknown
Mass
Unknown
Launch date (UTC)
1993-06-16 (33 years ago)
Launch vehicle
Unknown
Launch site
Plesetsk Missile And Space Complex (PKMTR)
Object type
Payload
Rocket body
Debris
Shape & HBR
Unknown shape, 0.1 m
Radar Cross Section
Medium (>0.1 m² and <1 m²)

Expand to show TLE details & history
Last TLE update: 1 day ago

TLE from 1 day ago
0 COSMOS 2251 DEB
1 34874U 93036ACM 26162.11473009  .00001799  00000-0  60354-3 0  9996
2 34874  74.0383 102.2179 0050526  85.3986 295.2057 14.37233579896357
Epoch: 2026-06-11T02:45Z
TLE epoch observation values (Epoch: 2026-06-11T02:45:12.679Z)
Latitude
19.27928°
Longitude
167.16302°
Altitude
754.564 km
Speed
7.487 km/s
True Right ascension
07h 11m 42s
True Declination
19° 10' 20"
Sunlit
Object was in daylight at epoch
Visualization orbit readout
Latitude
Unknown
Longitude
Unknown
Altitude
Unknown
Speed
Unknown
Apparent Right ascension
Unknown
Apparent Declination
Unknown
Sunlit
N/A
Visualization observer readout
Local Sidereal Time
16:56:25
Azimuth
Unknown
Elevation
Unknown
Doppler factor
Unknown
Orbital elements
Apogee altitude
801.369 km
Perigee altitude
729.183 km
Semi-major axis
7,143.413 km
Eccentricity
0.00505
Inclination
74.0383°
RAAN
102.2179°
Arg. of periapsis
85.3986°
True anomaly
294.68044°
Mean anomaly
295.2057°
Eccentric anomaly
294.94321°
Mean motion
3.59488 °/min
Orbital period
100.14 mins
BSTAR
0.00060354
Loading maneuver chart data...
Computing Atmospheric mass density...

Documentation

Showing up to 5 results
|